GW1612 Weather Reports


time (UTC)temp
C
wind
direction
speed
KPH
gust
KPH
rain 1hr
cm
rain 24hr
cm
rain mn
cm
humidity
%
barometer
mb
20260510103657 10 63 0.0 0.0 0.00 0.00 0.00 99 1013.8
20260510103154 10 63 0.0 0.0 0.00 0.00 0.00 99 1013.9
20260510102654 10 62 0.0 0.0 0.00 0.00 0.00 99 1013.6
20260510102150 10 62 0.0 0.0 0.00 0.00 0.00 99 1013.6
20260510101648 10 63 0.0 0.0 0.00 0.00 0.00 99 1013.6
20260510101146 10 63 0.0 0.0 0.00 0.00 0.00 99 1013.3
20260510100642 10 61 0.0 0.0 0.00 0.00 0.00 99 1013.3
20260510100140 10 62 0.0 0.0 0.00 0.00 0.00 99 1013.0
20260510095635 10 61 0.0 0.0 0.00 0.00 0.00 99 1013.2
20260510095130 10 65 0.0 0.0 0.00 0.00 0.00 99 1013.0
20260510094629 10 81 0.0 0.0 0.00 0.00 0.00 99 1012.8
20260510094125 10 82 0.0 0.0 0.00 0.00 0.00 99 1012.7
20260510093622 10 82 0.0 0.0 0.00 0.00 0.00 99 1012.7
20260510093119 10 82 0.0 0.0 0.00 0.00 0.00 99 1012.8
20260510092615 10 60 0.0 1.6 0.00 0.00 0.00 99 1012.8
20260510092115 10 76 0.0 0.0 0.00 0.00 0.00 99 1012.7
20260510091612 10 57 0.0 1.6 0.00 0.00 0.00 99 1012.6
20260510091108 10 56 0.0 0.0 0.00 0.00 0.00 99 1012.6
20260510090605 10 254 1.6 1.6 0.00 0.00 0.00 99 1012.5
20260510090101 10 79 0.0 0.0 0.00 0.00 0.00 99 1012.6
20260510085556 10 78 0.0 0.0 0.00 0.00 0.00 99 1012.6
20260510085052 10 77 0.0 0.0 0.00 0.00 0.00 99 1012.5
20260510084549 10 82 0.0 0.0 0.00 0.00 0.00 99 1012.6
20260510084045 10 80 0.0 0.0 0.00 0.00 0.00 99 1012.2
20260510083542 10 82 0.0 0.0 0.00 0.00 0.00 99 1012.4
20260510083038 10 106 0.0 1.6 0.00 0.00 0.00 99 1012.5
20260510082535 10 87 0.0 1.6 0.00 0.00 0.00 99 1012.5
20260510082031 10 40 0.0 1.6 0.00 0.00 0.00 99 1012.6
20260510081526 10 87 0.0 0.0 0.00 0.00 0.00 99 1012.6
20260510081022 10 86 0.0 0.0 0.00 0.00 0.00 99 1012.6
20260510080521 10 87 0.0 1.6 0.00 0.00 0.00 99 1012.4
20260510080018 10 62 0.0 1.6 0.00 0.00 0.00 99 1012.6
20260510075515 10 49 0.0 1.6 0.00 0.00 0.00 99 1012.4
20260510075012 10 109 0.0 1.6 0.00 0.00 0.00 99 1012.5
20260510074510 10 82 0.0 1.6 0.00 0.00 0.00 99 1012.5
20260510074005 10 87 0.0 1.6 0.00 0.00 0.00 99 1012.6
20260510073501 10 212 1.6 1.6 0.00 0.00 0.00 99 1012.7
20260510072958 10 69 0.0 3.2 0.00 0.00 0.00 99 1012.6
20260510072455 10 99 0.0 3.2 0.00 0.00 0.00 99 1012.6
20260510071950 10 72 0.0 0.0 0.00 0.00 0.00 99 1013.0
20260510071447 10 89 0.0 0.0 0.00 0.00 0.00 99 1013.2
20260510070945 10 94 0.0 0.0 0.00 0.00 0.00 99 1013.2
20260510070442 10 129 0.0 1.6 0.00 0.00 0.00 99 1013.1
20260510065937 10 76 0.0 0.0 0.00 0.00 0.00 99 1013.2
20260510065435 10 89 0.0 0.0 0.00 0.00 0.00 99 1013.3
20260510064930 10 111 1.6 1.6 0.00 0.00 0.00 99 1013.4
20260510064428 10 61 0.0 0.0 0.00 0.00 0.00 99 1013.3
20260510063925 10 48 0.0 0.0 0.00 0.00 0.00 99 1013.5
20260510063421 10 48 0.0 0.0 0.00 0.00 0.00 99 1013.5
20260510062919 10 40 0.0 0.0 0.00 0.00 0.00 99 1013.4
20260510062414 10 38 0.0 0.0 0.00 0.00 0.00 99 1013.4
20260510061910 10 27 0.0 1.6 0.00 0.00 0.00 99 1013.2
20260510061407 10 42 0.0 0.0 0.00 0.00 0.00 99 1013.0
20260510060902 10 43 0.0 0.0 0.00 0.00 0.00 99 1013.1
20260510060359 10 43 0.0 0.0 0.00 0.00 0.00 99 1013.2
20260510055856 10 43 0.0 0.0 0.00 0.00 0.00 99 1013.2
20260510055355 10 63 0.0 0.0 0.00 0.00 0.00 99 1012.9
20260510054849 10 74 0.0 0.0 0.00 0.00 0.00 99 1012.8
20260510054345 10 77 0.0 0.0 0.00 0.00 0.00 99 1012.5
20260510053840 10 57 0.0 0.0 0.00 0.00 0.00 99 1012.8
20260510053335 10 104 0.0 1.6 0.00 0.00 0.00 99 1012.8
20260510052832 10 62 0.0 0.0 0.00 0.00 0.00 99 1012.8
20260510052327 10 74 0.0 0.0 0.00 0.00 0.00 99 1012.9
20260510051824 10 45 0.0 0.0 0.00 0.00 0.00 99 1012.9
20260510051321 10 113 0.0 0.0 0.00 0.00 0.00 99 1013.0
20260510050818 10 124 0.0 1.6 0.00 0.00 0.00 99 1012.8
20260510050314 10 76 1.6 1.6 0.00 0.00 0.00 99 1012.7
20260510045812 10 44 0.0 0.0 0.00 0.00 0.00 99 1012.9
20260510045308 10 83 0.0 0.0 0.00 0.00 0.00 99 1012.9
20260510044805 10 67 0.0 0.0 0.00 0.00 0.00 99 1012.8
20260510044302 10 71 1.6 1.6 0.00 0.00 0.00 99 1012.8
20260510043759 10 76 1.6 1.6 0.00 0.00 0.00 99 1012.6
20260510043255 10 68 0.0 0.0 0.00 0.00 0.00 99 1012.7
20260510042752 10 75 0.0 0.0 0.00 0.00 0.00 99 1012.7
20260510042247 10 62 0.0 0.0 0.00 0.00 0.00 99 1012.9
20260510041744 10 51 0.0 9.7 0.00 0.00 0.00 99 1012.8
20260510041241 10 75 1.6 3.2 0.00 0.00 0.00 99 1012.7
20260510040739 10 120 0.0 1.6 0.00 0.00 0.00 99 1012.8
20260510040230 10 110 0.0 4.8 0.00 0.00 0.00 99 1012.7
20260510035725 10 65 0.0 1.6 0.00 1.12 1.12 99 1012.7
20260510035221 10 48 1.6 3.2 0.00 1.12 1.12 99 1012.5
20260510034717 10 43 0.0 1.6 0.00 1.12 1.12 99 1012.8
20260510034216 10 79 0.0 3.2 0.00 1.12 1.12 99 1012.6
20260510033711 10 71 0.0 4.8 0.00 1.12 1.12 99 1012.8
20260510033209 10 72 0.0 0.0 0.00 1.12 1.12 99 1012.7
20260510032705 10 81 0.0 1.6 0.00 1.12 1.12 99 1012.7
20260510032201 10 98 1.6 1.6 0.00 1.12 1.12 99 1012.8
20260510031655 11 74 0.0 3.2 0.00 1.12 1.12 99 1012.6
20260510031152 11 97 0.0 8.0 0.00 1.12 1.12 99 1012.7
20260510030646 11 134 4.8 4.8 0.00 1.12 1.12 99 1012.7
20260510030144 11 72 0.0 0.0 0.00 1.12 1.12 99 1012.7
20260510025641 11 94 0.0 3.2 0.00 1.12 1.12 99 1012.4
20260510025139 11 89 0.0 1.6 0.00 1.12 1.12 99 1012.4
20260510024635 11 111 0.0 1.6 0.00 1.12 1.12 99 1012.7
20260510024132 11 78 0.0 1.6 0.00 1.12 1.12 99 1012.7
20260510023628 11 81 0.0 1.6 0.00 1.12 1.12 99 1012.5
20260510023126 11 64 0.0 3.2 0.00 1.12 1.12 99 1012.4
20260510022625 11 74 0.0 0.0 0.00 1.12 1.12 99 1012.6
20260510022120 11 82 0.0 0.0 0.00 1.12 1.12 99 1012.6
20260510021616 11 65 0.0 1.6 0.00 1.12 1.12 99 1012.6
20260510021114 11 80 0.0 0.0 0.00 1.12 1.12 99 1012.3
20260510020608 11 79 0.0 0.0 0.00 1.12 1.12 99 1012.4
20260510020103 11 57 0.0 0.0 0.00 1.12 1.12 99 1012.5
20260510015600 11 89 0.0 0.0 0.00 1.12 1.12 99 1012.6
20260510015056 11 70 0.0 0.0 0.00 1.12 1.12 99 1012.6
20260510014552 11 70 0.0 0.0 0.00 1.12 1.12 99 1012.7
20260510014049 11 102 0.0 1.6 0.00 1.12 1.12 99 1013.0
20260510013544 11 79 0.0 0.0 0.00 1.12 1.12 99 1012.8
20260510013040 11 100 0.0 3.2 0.00 1.12 1.12 99 1012.9
20260510012533 11 75 0.0 3.2 0.00 1.12 1.12 99 1012.7
20260510012030 11 68 0.0 0.0 0.00 1.12 1.12 99 1012.5
20260510011524 11 71 0.0 0.0 0.00 1.12 1.12 99 1012.6
20260510011020 11 75 0.0 0.0 0.00 1.12 1.12 99 1012.6
20260510010517 11 54 0.0 0.0 0.00 1.12 1.12 99 1012.6
20260510010014 11 63 0.0 0.0 0.00 1.12 1.12 99 1012.4
20260510005509 11 98 0.0 1.6 0.00 1.12 1.12 99 1012.3
20260510005007 11 71 0.0 1.6 0.00 1.12 1.12 99 1012.5
20260510004504 11 63 3.2 4.8 0.00 1.12 1.12 99 1012.4
20260510004003 11 69 0.0 0.0 0.00 1.12 1.12 99 1012.4
20260510003459 11 82 0.0 3.2 0.00 1.12 1.12 99 1012.6
20260510002954 11 64 0.0 1.6 0.00 1.12 1.12 99 1012.4
20260510002450 10 65 0.0 0.0 0.00 1.12 1.12 99 1012.3
20260510001947 10 65 0.0 0.0 0.00 1.12 1.12 99 1012.0
20260510001444 10 65 0.0 0.0 0.00 1.12 1.12 99 1012.0
20260510000942 11 85 0.0 0.0 0.00 1.12 1.12 99 1011.8
20260510000440 10 51 1.6 1.6 0.00 1.12 1.12 99 1011.8
20260509235935 10 63 0.0 0.0 0.00 1.12 1.12 98 1011.8
20260509235432 11 70 0.0 0.0 0.00 1.12 1.12 98 1011.7
20260509234928 11 70 0.0 0.0 0.00 1.12 1.12 98 1011.3
20260509234425 11 80 0.0 3.2 0.00 1.12 1.12 98 1011.5
20260509233923 11 94 1.6 3.2 0.00 1.12 1.12 97 1011.5
20260509233421 11 75 0.0 4.8 0.00 1.12 1.12 97 1011.3
20260509232916 11 82 0.0 4.8 0.00 1.12 1.12 97 1011.3
20260509232415 11 68 0.0 1.6 0.00 1.12 1.12 96 1011.2
20260509231910 11 181 4.8 4.8 0.00 1.12 1.12 96 1011.3
20260509231406 11 109 1.6 1.6 0.00 1.12 1.12 95 1011.3
20260509230905 11 82 0.0 3.2 0.00 1.12 1.12 95 1011.2
20260509230401 11 96 1.6 3.2 0.00 1.12 1.12 95 1011.4
20260509225857 11 125 3.2 4.8 0.00 1.12 1.12 94 1011.2
20260509225353 12 104 1.6 4.8 0.00 1.12 1.12 94 1011.4
20260509224849 12 166 1.6 3.2 0.00 1.12 1.12 94 1011.3
20260509224345 12 72 0.0 8.0 0.00 1.12 1.12 93 1011.3
20260509223842 12 181 3.2 8.0 0.00 1.12 1.12 94 1011.2
20260509223339 12 100 1.6 1.6 0.00 1.12 1.12 94 1011.3
20260509222836 12 98 1.6 3.2 0.00 1.12 1.12 94 1011.4
20260509222331 12 105 1.6 3.2 0.00 1.12 1.12 94 1011.4
20260509221827 12 86 1.6 4.8 0.00 1.12 1.12 94 1011.5
20260509221325 12 161 3.2 3.2 0.00 1.12 1.12 94 1011.5
20260509220825 12 232 1.6 3.2 0.00 1.12 1.12 94 1011.7
20260509220321 12 100 0.0 1.6 0.00 1.12 1.12 95 1011.6
20260509215817 11 114 1.6 1.6 0.00 1.12 1.12 95 1011.6
20260509215314 12 180 1.6 4.8 0.00 1.12 1.12 95 1011.7
20260509214811 12 70 1.6 3.2 0.00 1.12 1.12 95 1011.6
20260509214308 11 118 3.2 4.8 0.00 1.12 1.12 95 1011.5
20260509213804 12 77 1.6 4.8 0.00 1.12 1.12 95 1011.6
20260509213300 11 167 1.6 4.8 0.00 1.12 1.12 95 1011.5
20260509212758 11 24 1.6 4.8 0.00 1.12 1.12 95 1011.7
20260509212255 12 223 4.8 4.8 0.00 1.12 1.12 95 1011.6
20260509211750 12 32 1.6 3.2 0.00 1.12 1.12 95 1011.4
20260509211247 12 108 1.6 4.8 0.00 1.12 1.12 96 1011.4
20260509210743 12 102 1.6 1.6 0.00 1.12 1.12 96 1011.5
20260509210242 12 330 1.6 3.2 0.00 1.12 1.12 97 1011.6
20260509205741 12 47 1.6 1.6 0.00 1.12 1.12 97 1011.7
20260509205236 12 108 3.2 3.2 0.00 1.12 1.12 96 1011.8
20260509204732 12 103 1.6 1.6 0.00 1.12 1.12 96 1011.8
20260509204229 11 103 1.6 3.2 0.00 1.12 1.12 96 1011.9
20260509203725 12 98 1.6 1.6 0.00 1.12 1.12 97 1011.9
20260509203223 11 77 1.6 1.6 0.00 1.12 1.12 97 1012.0
20260509202719 11 138 1.6 1.6 0.00 1.12 1.12 97 1012.0
20260509202215 11 66 0.0 0.0 0.00 1.12 1.12 98 1011.9
20260509201709 11 69 0.0 0.0 0.00 1.12 1.12 98 1012.1
20260509201207 11 86 0.0 1.6 0.00 1.12 1.12 98 1012.1
20260509200703 11 113 1.6 3.2 0.00 1.12 1.12 98 1012.2
20260509200157 11 55 0.0 3.2 0.00 1.12 1.12 99 1012.2
20260509195653 11 36 1.6 1.6 0.00 1.12 1.12 99 1012.1
20260509195149 11 152 1.6 3.2 0.00 1.12 1.12 99 1012.3
20260509194643 10 116 1.6 4.8 0.00 1.12 1.12 99 1012.4
20260509194141 11 74 1.6 1.6 0.00 1.12 1.12 99 1012.4
20260509193636 10 188 1.6 4.8 0.18 1.12 1.12 99 1012.5
20260509193132 10 153 1.6 3.2 0.00 1.09 1.09 99 1012.5
20260509192629 10 82 3.2 4.8 0.00 1.09 1.09 99 1012.8
20260509192123 10 136 1.6 8.0 0.00 1.09 1.09 99 1012.7
20260509191618 10 93 1.6 3.2 0.00 1.09 1.09 99 1012.7
20260509191115 10 194 3.2 3.2 0.00 1.09 1.09 99 1012.6
20260509190611 10 89 1.6 3.2 0.00 1.09 1.09 99 1013.0
20260509190109 10 80 1.6 9.7 0.13 1.09 1.09 99 1013.0
20260509185606 10 68 0.0 4.8 0.13 1.09 1.09 99 1012.9
20260509185102 10 62 0.0 1.6 0.00 1.07 1.07 99 1013.0
20260509184601 10 116 1.6 3.2 0.18 1.07 1.07 99 1013.1
20260509184057 10 71 0.0 4.8 0.18 1.07 1.07 99 1013.2
20260509183552 10 94 4.8 4.8 0.13 1.04 1.04 99 1013.2
20260509183048 10 60 1.6 3.2 0.13 1.04 1.04 99 1013.2
20260509182545 10 94 3.2 3.2 0.18 1.02 1.02 99 1013.3
20260509182042 10 86 0.0 1.6 0.18 1.02 1.02 99 1013.1
20260509181540 10 99 0.0 1.6 0.00 0.99 0.99 99 1013.1
20260509181037 10 78 0.0 1.6 0.00 0.99 0.99 99 1013.1
20260509180532 9 125 3.2 8.0 0.18 0.99 0.99 99 1013.0
20260509180030 9 99 0.0 3.2 0.18 0.99 0.99 99 1013.1
20260509175525 9 99 3.2 8.0 0.13 0.97 0.97 99 1013.0
20260509175023 9 147 1.6 3.2 0.13 0.97 0.97 99 1013.0
20260509174519 9 85 0.0 3.2 0.00 0.94 0.94 99 1013.1
20260509174014 9 104 0.0 4.8 0.00 0.94 0.94 99 1013.1
20260509173509 9 172 1.6 3.2 0.18 0.94 0.94 99 1013.2
20260509173005 9 94 1.6 4.8 0.18 0.94 0.94 99 1013.2
20260509172503 9 189 3.2 8.0 0.00 0.91 0.91 99 1013.2
20260509171958 9 130 1.6 4.8 0.13 0.91 0.91 99 1013.4
20260509171454 9 84 0.0 4.8 0.13 0.91 0.91 99 1013.3
20260509170951 9 109 1.6 3.2 0.00 0.89 0.89 99 1013.5
20260509170446 9 99 0.0 4.8 0.00 0.89 0.89 99 1013.7
20260509165942 9 76 0.0 3.2 0.18 0.89 0.89 99 1013.7
20260509165441 8 87 0.0 3.2 0.18 0.89 0.89 99 1013.8
20260509164937 9 121 1.6 4.8 0.00 0.86 0.86 98 1013.9
20260509164433 8 124 1.6 1.6 0.00 0.86 0.86 98 1013.7
20260509163929 8 73 0.0 3.2 0.00 0.86 0.86 98 1013.8
20260509163427 8 106 1.6 1.6 0.13 0.86 0.86 98 1013.8
20260509162926 8 148 1.6 3.2 0.13 0.86 0.86 98 1014.0
20260509162425 8 99 0.0 1.6 0.00 0.84 0.84 98 1013.9
20260509161920 8 98 0.0 1.6 0.00 0.84 0.84 98 1014.0
20260509161417 8 77 0.0 0.0 0.00 0.84 0.84 98 1014.1
20260509160912 8 52 0.0 0.0 0.00 0.84 0.84 98 1014.0
20260509160408 7 82 0.0 1.6 0.18 0.84 0.84 98 1014.2
20260509155903 7 82 0.0 0.0 0.18 0.84 0.84 98 1014.4
20260509155401 7 87 0.0 0.0 0.00 0.81 0.81 98 1014.6
20260509154857 7 87 0.0 0.0 0.00 0.81 0.81 99 1014.5
20260509154353 7 85 0.0 0.0 0.00 0.81 0.81 99 1014.6
20260509153850 7 36 0.0 1.6 0.13 0.81 0.81 99 1014.7
20260509153347 7 37 0.0 0.0 0.13 0.81 0.81 99 1014.7
20260509152844 7 36 0.0 0.0 0.00 0.79 0.79 99 1014.8
20260509152340 7 37 0.0 1.6 0.00 0.79 0.79 99 1014.8
20260509151837 7 91 0.0 0.0 0.00 0.79 0.79 99 1014.7
20260509151333 6 359 0.0 1.6 0.18 0.79 0.79 99 1014.8
20260509150832 6 33 0.0 1.6 0.18 0.79 0.79 99 1014.9
20260509150329 6 44 0.0 0.0 0.00 0.76 0.76 99 1014.9
20260509145826 6 20 0.0 0.0 0.13 0.76 0.76 99 1015.0
20260509145321 6 45 0.0 0.0 0.13 0.76 0.76 99 1015.1
20260509144818 6 41 0.0 0.0 0.00 0.74 0.74 99 1015.1
20260509144315 6 39 0.0 0.0 0.18 0.74 0.74 99 1014.9
20260509143812 6 27 0.0 1.6 0.18 0.74 0.74 99 1015.2
20260509143309 6 50 0.0 0.0 0.13 0.71 0.71 99 1015.1
20260509142805 6 64 0.0 0.0 0.13 0.71 0.71 99 1015.1
20260509142301 6 92 0.0 0.0 0.18 0.69 0.69 99 1015.2
20260509141757 5 46 0.0 1.6 0.18 0.69 0.69 99 1015.0
20260509141255 6 72 0.0 0.0 0.18 0.66 0.66 99 1015.1
20260509140751 5 14 0.0 0.0 0.00 0.64 0.64 99 1014.9
20260509140248 5 46 0.0 0.0 0.00 0.64 0.64 99 1014.9
20260509135746 5 43 0.0 0.0 0.13 0.64 0.64 99 1014.9
20260509135244 5 28 0.0 1.6 0.13 0.64 0.64 99 1015.1
20260509134740 5 50 0.0 0.0 0.00 0.61 0.61 99 1014.9
20260509134238 5 44 0.0 0.0 0.18 0.61 0.61 99 1014.8
20260509133735 5 41 0.0 0.0 0.18 0.61 0.61 99 1014.9
20260509133231 5 49 0.0 0.0 0.00 0.58 0.58 99 1014.6
20260509132730 5 49 0.0 0.0 0.00 0.58 0.58 99 1015.1
20260509132228 5 29 0.0 1.6 0.13 0.58 0.58 99 1014.9
20260509131725 5 39 0.0 0.0 0.13 0.58 0.58 99 1014.8
20260509131221 5 61 0.0 0.0 0.00 0.56 0.56 99 1014.8
20260509130717 5 61 0.0 0.0 0.00 0.56 0.56 99 1015.0
20260509130213 5 55 0.0 0.0 0.00 0.56 0.56 99 1015.2
20260509125710 5 103 0.0 1.6 0.00 0.56 0.56 99 1015.4
20260509125207 5 98 0.0 0.0 0.00 0.56 0.56 99 1015.2
20260509124703 5 87 0.0 0.0 0.00 0.56 0.56 99 1014.9
20260509124200 5 45 0.0 0.0 0.00 0.56 0.56 99 1015.0
20260509123658 5 51 0.0 0.0 0.00 0.56 0.56 99 1015.1
20260509123155 5 49 0.0 1.6 0.00 0.56 0.56 99 1015.0
20260509122650 5 33 0.0 1.6 0.00 0.56 0.56 99 1015.2
20260509122148 5 42 0.0 0.0 0.18 0.56 0.56 99 1015.2
20260509121644 5 31 0.0 1.6 0.18 0.56 0.56 99 1015.4
20260509121142 5 43 0.0 0.0 0.00 0.53 0.53 99 1015.2
20260509120640 5 43 0.0 0.0 0.00 0.53 0.53 99 1015.4
20260509120138 5 43 0.0 0.0 0.00 0.53 0.53 99 1015.4
20260509115635 5 43 0.0 0.0 0.00 0.53 0.53 99 1015.4
20260509115133 5 43 0.0 0.0 0.00 0.53 0.53 99 1015.4
20260509114631 5 49 0.0 0.0 0.00 0.53 0.53 99 1015.5
20260509114129 5 51 0.0 0.0 0.00 0.53 0.53 99 1015.6
20260509113627 5 52 0.0 0.0 0.13 0.53 0.53 99 1015.4
20260509113124 5 52 0.0 0.0 0.13 0.53 0.53 99 1015.5
20260509112620 5 52 0.0 0.0 0.00 0.51 0.51 99 1015.2
20260509112118 5 51 0.0 0.0 0.00 0.51 0.51 99 1015.2
20260509111615 4 56 0.0 0.0 0.18 0.51 0.51 99 1015.4
20260509111111 4 56 0.0 0.0 0.18 0.51 0.51 99 1015.5
20260509110609 5 70 0.0 0.0 0.13 0.48 0.48 99 1015.6
20260509110106 5 74 0.0 0.0 0.30 0.48 0.48 99 1015.5
20260509105604 4 86 0.0 0.0 0.30 0.46 0.46 99 1015.6
20260509105101 5 80 0.0 0.0 0.13 0.43 0.43 99 1015.6
20260509104558 5 79 0.0 0.0 0.18 0.41 0.41 99 1015.7